Photometre #46[NE_1.6] Toulon AOT

File : 20221127_46.hum

27/11/2022,07:42:25,TEMP=6.0,BA=5.56,STAT.A=4.5,ExtBa=10.75
27/11/2022,07:46:58,TEMP=6.2,BA=5.56,STAT.A=4.5,ExtBa=10.65
27/11/2022,07:52:20,TEMP=6.5,BA=5.60,STAT.A=4.5,ExtBa=10.55
27/11/2022,07:58:47,TEMP=6.7,BA=5.60,STAT.A=4.5,ExtBa=10.48
27/11/2022,08:06:44,TEMP=6.9,BA=5.36,STAT.A=4.5,ExtBa=10.47
27/11/2022,08:16:49,TEMP=7.2,BA=5.56,STAT.A=4.5,ExtBa=10.47
27/11/2022,08:18:33,TEMP=7.4,BA=5.56,STAT.b=4.5
27/11/2022,08:23:52,TEMP=7.4,BA=5.52,STAT.F,ExtBa=10.62
27/11/2022,08:38:50,TEMP=8.2,BA=5.60,STAT.D=4.5,ExtBa=10.72
27/11/2022,08:53:50,TEMP=9.2,BA=5.64,STAT.D=4.5,ExtBa=10.73
27/11/2022,09:08:52,TEMP=10.1,BA=5.64,STAT.D=4.5,ExtBa=10.74
27/11/2022,09:23:52,TEMP=11.2,BA=5.64,STAT.F,ExtBa=10.81
27/11/2022,09:39:44,TEMP=13.0,BA=5.52,STAT.b=4.5
27/11/2022,09:53:53,TEMP=15.2,BA=5.64,STAT.D=4.5,ExtBa=13.83
27/11/2022,10:08:51,TEMP=16.4,BA=5.64,STAT.D=4.5,ExtBa=13.78
27/11/2022,10:23:53,TEMP=16.8,BA=5.64,STAT.F,ExtBa=13.64
27/11/2022,10:38:51,TEMP=17.6,BA=5.44,STAT.D=4.5,ExtBa=11.23
27/11/2022,10:53:51,TEMP=18.3,BA=5.64,STAT.D=4.5,ExtBa=11.18
27/11/2022,11:08:51,TEMP=18.9,BA=5.64,STAT.D=4.5,ExtBa=13.86
27/11/2022,11:23:53,TEMP=19.7,BA=5.64,STAT.F,ExtBa=13.89
27/11/2022,11:38:51,TEMP=19.7,BA=5.88,STAT.D=4.5,ExtBa=13.25
27/11/2022,11:53:51,TEMP=19.7,BA=5.64,STAT.D=4.5,ExtBa=13.91
27/11/2022,12:08:52,TEMP=19.4,BA=5.64,STAT.D=4.5,ExtBa=14.01
27/11/2022,12:23:53,TEMP=19.3,BA=5.64,STAT.F,ExtBa=14.08
27/11/2022,12:39:00,TEMP=19.4,BA=5.64,STAT.D=4.5,ExtBa=11.36
27/11/2022,12:53:51,TEMP=19.3,BA=5.64,STAT.D=4.5,ExtBa=13.96
27/11/2022,13:08:51,TEMP=19.1,BA=5.64,STAT.D=4.5,ExtBa=14.16
27/11/2022,13:23:53,TEMP=18.7,BA=5.64,STAT.F,ExtBa=14.25
27/11/2022,13:38:51,TEMP=18.5,BA=5.64,STAT.D=4.5,ExtBa=11.53
27/11/2022,13:53:51,TEMP=18.2,BA=5.68,STAT.D=4.5,ExtBa=14.08
27/11/2022,14:08:51,TEMP=18.7,BA=5.64,STAT.D=4.5,ExtBa=14.17
27/11/2022,14:23:53,TEMP=18.2,BA=5.64,STAT.F,ExtBa=14.16
27/11/2022,14:37:53,TEMP=17.2,BA=5.48,STAT.A=4.5,ExtBa=10.74
27/11/2022,14:41:00,TEMP=16.7,BA=5.52,STAT.A=4.5,ExtBa=10.79
27/11/2022,14:48:57,TEMP=15.8,BA=5.52,STAT.A=4.5,ExtBa=10.80
27/11/2022,14:55:24,TEMP=15.3,BA=5.44,STAT.A=4.5,ExtBa=10.84
27/11/2022,15:00:46,TEMP=14.9,BA=5.52,STAT.A=4.5,ExtBa=10.93
27/11/2022,15:05:16,TEMP=14.6,BA=5.52,STAT.A=4.5,ExtBa=11.08